User: anonymous   Login
Location: Brainerd
(46.3580°N, 94.2010°W)
Time: 12:29:26
(UTC-05:00)
Language:

CZ-4C R/B - Orbit

View from above orbital plane
View from above orbital plane
View from above satellite
View from above satellite

Ground track
Ground track

The orbit data is extracted from the following two-line orbital elements,

1 32290U 07055B   14297.43353329  .00010032  00000-0  37995-3 0  9945
2 32290 097.5655 013.1148 0084758 318.3204 174.1119 15.23752573383947
Epoch (UTC): 24 October 2014 10:24:17
Eccentricity: 0.0084758
inclination: 97.5655°
perigee height: 436 km
apogee height: 553 km
right ascension of ascending node: 13.1148°
argument of perigee: 318.3204°
revolutions per day: 15.23752573
mean anomaly at epoch: 174.1119°
orbit number at epoch: 38394

The dashed part of the orbit path shows where the satellite is in the earth's shadow,  

DLR